This is the latest recevied weather packets stored in our database for station/object N2XGL-1. If no packets are shown the sender has not sent any weather packets the latest 10 day(s).
| Time | Temp. | Humidity | Pressure | Rain* | Wind** | Luminosity | Snow |
|---|---|---|---|---|---|---|---|
| 1777746153 | 20° C | 25% | 1014.9 hPa | 0 mm | - | - | - |
| 1777745648 | 19.44° C | 19% | 1015.1 hPa | 0 mm | - | - | - |
| 1777744618 | 20° C | 18% | 1015.4 hPa | 0 mm | - | - | - |
| 1777744038 | 20° C | 22% | 1015.6 hPa | 0 mm | - | - | - |
| 1777743576 | 20° C | 27% | 1015.7 hPa | 0 mm | - | - | - |
| 1777743469 | 20° C | 27% | 1015.7 hPa | 0 mm | - | - | - |
| 1777742421 | 18.89° C | 20% | 1016 hPa | 0 mm | - | - | - |
| 1777742384 | 18.89° C | 20% | 1016 hPa | 0 mm | - | - | - |
| 1777741794 | 18.33° C | 20% | 1016 hPa | 0 mm | - | - | - |
| 1777740861 | 18.33° C | 22% | 1016 hPa | 0 mm | - | - | - |
| 1777740748 | 18.33° C | 22% | 1016 hPa | 0 mm | - | - | - |
| 1777739105 | 17.78° C | 24% | 1016.2 hPa | 0 mm | - | - | - |
| 1777738549 | 17.78° C | 23% | 1016.3 hPa | 0 mm | - | - | - |
| 1777738028 | 17.22° C | 24% | 1016.5 hPa | 0 mm | - | - | - |
| 1777737473 | 16.67° C | 30% | 1016.5 hPa | 0 mm | - | - | - |
| 1777736878 | 15.56° C | 33% | 1016.6 hPa | 0 mm | - | - | - |
| 1777736394 | 14.44° C | 36% | 1016.7 hPa | 0 mm | - | - | - |
| 1777735321 | 13.33° C | 40% | 1016.9 hPa | 0 mm | - | - | - |
| 1777734406 | 11.67° C | 43% | 1017.2 hPa | 0 mm | - | - | - |
| 1777734289 | 11.67° C | 43% | 1017.2 hPa | 0 mm | - | - | - |
| 1777733758 | 11.11° C | 44% | 1017.3 hPa | 0 mm | - | - | - |
| 1777733169 | 10.56° C | 46% | 1017.3 hPa | 0 mm | - | - | - |
| 1777732063 | 8.89° C | 49% | 1017.3 hPa | 0 mm | - | - | - |
| 1777730981 | 7.22° C | 57% | 1017.5 hPa | 0 mm | - | - | - |
| 1777730459 | 6.67° C | 59% | 1017.5 hPa | 0 mm | - | - | - |
* Rain latest hour (hover to see other rain measurements)
** Current wind speed in m/s (hover to see current wind gust speed)